,,PA_Meas_PMT16A,,PR_Meas_QMR101_102,,RH_Meas_QMH101,,SR_Meas_QMS101,,TA_Meas_QMH101,,GenWind,,GenWind,
time,status,PA,status,PR,status,RH,status,SR,status,TA,status,DirAvg,status,SpdAvg,
2013-05-03, 00:00:04,VALID,916.196,VALID,0,VALID,96.764,VALID,0,VALID,21.2242,VALID,120,VALID,0,
2013-05-03, 00:01:04,VALID,916.142,VALID,0,VALID,96.7716,VALID,0,VALID,21.2226,VALID,120,VALID,0,
2013-05-03, 00:02:04,VALID,916.157,VALID,0,VALID,96.7793,VALID,0.107441,VALID,21.2226,VALID,120,VALID,0,
2013-05-03, 00:03:04,VALID,916.159,VALID,0,VALID,96.7716,VALID,0,VALID,21.2616,VALID,120,VALID,0,
2013-05-03, 00:04:04,VALID,916.147,VALID,0,VALID,96.7716,VALID,0,VALID,21.2827,VALID,120,VALID,0,
2013-05-03, 00:05:04,VALID,916.136,VALID,0,VALID,96.7793,VALID,0,VALID,21.2811,VALID,120,VALID,0,
2013-05-03, 00:06:04,VALID,916.11,VALID,0,VALID,96.7793,VALID,0,VALID,21.2795,VALID,119,VALID,0,
2013-05-03, 00:07:04,VALID,916.074,VALID,0,VALID,96.7793,VALID,0.107441,VALID,21.3591,VALID,120,VALID,0,
2013-05-03, 00:08:04,VALID,916.066,VALID,0,VALID,96.7869,VALID,0,VALID,21.3998,VALID,120,VALID,0,
2013-05-03, 00:09:04,VALID,916.063,VALID,0,VALID,96.8021,VALID,0,VALID,21.3981,VALID,120,VALID,0,
2013-05-03, 00:10:04,VALID,916.041,VALID,0,VALID,96.8174,VALID,0,VALID,21.3591,VALID,120,VALID,0,
2013-05-03, 00:11:04,VALID,916.021,VALID,0,VALID,96.7793,VALID,0.107441,VALID,21.3396,VALID,120,VALID,0,
2013-05-03, 00:12:04,VALID,916.012,VALID,0,VALID,96.764,VALID,0,VALID,21.3608,VALID,120,VALID,0,
2013-05-03, 00:13:04,VALID,915.993,VALID,0,VALID,96.764,VALID,0,VALID,21.3022,VALID,120,VALID,0,
2013-05-03, 00:14:04,VALID,915.963,VALID,0,VALID,96.764,VALID,0,VALID,21.2632,VALID,120,VALID,0,
2013-05-03, 00:15:04,VALID,915.981,VALID,0,VALID,96.7259,VALID,0.107441,VALID,21.2632,VALID,7,VALID,0,
2013-05-03, 00:16:04,VALID,915.975,VALID,0,VALID,96.7183,VALID,0,VALID,21.2437,VALID,9,VALID,0,
2013-05-03, 00:17:04,VALID,915.984,VALID,0,VALID,96.7259,VALID,0,VALID,21.2047,VALID,32,VALID,0,
2013-05-03, 00:18:04,VALID,916.016,VALID,0,VALID,96.703,VALID,0,VALID,21.1852,VALID,45,VALID,0,
2013-05-03, 00:19:04,VALID,915.954,VALID,0,VALID,96.6954,VALID,0,VALID,21.1852,VALID,45,VALID,0,
2013-05-03, 00:20:04,VALID,915.962,VALID,0,VALID,96.6878,VALID,0,VALID,21.2047,VALID,45,VALID,0,
2013-05-03, 00:21:04,VALID,915.981,VALID,0,VALID,96.6725,VALID,0,VALID,21.164,VALID,2,VALID,0,
2013-05-03, 00:22:04,VALID,915.982,VALID,0,VALID,96.6497,VALID,0,VALID,21.1461,VALID,356,VALID,0,
2013-05-03, 00:23:04,VALID,915.936,VALID,0,VALID,96.642,VALID,0,VALID,21.1266,VALID,356,VALID,0,
2013-05-03, 00:24:04,VALID,915.953,VALID,0,VALID,96.6344,VALID,0,VALID,21.1266,VALID,356,VALID,0,
2013-05-03, 00:25:04,VALID,915.941,VALID,0,VALID,96.6115,VALID,0,VALID,21.1071,VALID,356,VALID,0,
2013-05-03, 00:26:04,VALID,915.94,VALID,0,VALID,96.6268,VALID,0,VALID,21.0681,VALID,15,VALID,0,
2013-05-03, 00:27:04,VALID,915.899,VALID,0,VALID,96.6497,VALID,0,VALID,21.1266,VALID,30,VALID,0,
2013-05-03, 00:28:04,VALID,915.936,VALID,0,VALID,96.642,VALID,0,VALID,21.1461,VALID,29,VALID,0,
2013-05-03, 00:29:04,VALID,915.917,VALID,0,VALID,96.6725,VALID,0,VALID,21.1657,VALID,27,VALID,0,
2013-05-03, 00:30:04,VALID,915.883,VALID,0,VALID,96.6344,VALID,0,VALID,21.1266,VALID,7,VALID,0,
2013-05-03, 00:31:04,VALID,915.888,VALID,0,VALID,96.6039,VALID,0,VALID,21.1071,VALID,341,VALID,0,
2013-05-03, 00:32:04,VALID,915.87,VALID,0,VALID,96.5963,VALID,0,VALID,21.0681,VALID,354,VALID,0,
2013-05-03, 00:33:04,VALID,915.859,VALID,0,VALID,96.5887,VALID,0,VALID,21.0291,VALID,349,VALID,0,
2013-05-03, 00:34:04,VALID,915.863,VALID,0,VALID,96.5887,VALID,0,VALID,21.0291,VALID,351,VALID,0,
2013-05-03, 00:35:04,VALID,915.809,VALID,0,VALID,96.6192,VALID,0,VALID,21.0307,VALID,341,VALID,0,
2013-05-03, 00:36:04,VALID,915.818,VALID,0,VALID,96.6039,VALID,0,VALID,20.9495,VALID,351,VALID,0,
2013-05-03, 00:37:04,VALID,915.777,VALID,0,VALID,96.6192,VALID,0,VALID,20.9706,VALID,6,VALID,0,
2013-05-03, 00:38:04,VALID,915.79,VALID,0,VALID,96.6497,VALID,0,VALID,20.9706,VALID,348,VALID,0,
2013-05-03, 00:39:04,VALID,915.744,VALID,0,VALID,96.6497,VALID,0,VALID,20.969,VALID,348,VALID,0,
2013-05-03, 00:40:04,VALID,915.74,VALID,0,VALID,96.6649,VALID,0,VALID,20.9885,VALID,340,VALID,0,
2013-05-03, 00:41:04,VALID,915.722,VALID,0,VALID,96.6878,VALID,0,VALID,20.9706,VALID,314,VALID,0,
2013-05-03, 00:42:04,VALID,915.688,VALID,0,VALID,96.6802,VALID,0,VALID,20.9511,VALID,346,VALID,0,
2013-05-03, 00:43:04,VALID,915.643,VALID,0,VALID,96.7183,VALID,0,VALID,20.9901,VALID,28,VALID,0,
2013-05-03, 00:44:04,VALID,915.622,VALID,0,VALID,96.7183,VALID,0,VALID,20.9901,VALID,349,VALID,0,
2013-05-03, 00:45:04,VALID,915.614,VALID,0,VALID,96.6878,VALID,0,VALID,20.9316,VALID,20,VALID,0,
2013-05-03, 00:46:04,VALID,915.582,VALID,0,VALID,96.6954,VALID,0,VALID,20.9511,VALID,343,VALID,0,
2013-05-03, 00:47:04,VALID,915.58,VALID,0,VALID,96.6954,VALID,0,VALID,20.912,VALID,346,VALID,0,
2013-05-03, 00:48:04,VALID,915.596,VALID,0,VALID,96.7107,VALID,0,VALID,20.9316,VALID,346,VALID,0,
2013-05-03, 00:49:04,VALID,915.568,VALID,0.2,VALID,96.7335,VALID,0,VALID,20.9706,VALID,346,VALID,0,
2013-05-03, 00:50:04,VALID,915.563,VALID,0,VALID,96.7488,VALID,0.107441,VALID,20.9495,VALID,351,VALID,0,
2013-05-03, 00:51:04,VALID,915.542,VALID,0,VALID,96.7411,VALID,0.107441,VALID,21.0096,VALID,355,VALID,0,
2013-05-03, 00:52:04,VALID,915.559,VALID,0,VALID,96.7411,VALID,0,VALID,21.0096,VALID,14,VALID,0,
2013-05-03, 00:53:04,VALID,915.537,VALID,0,VALID,96.7488,VALID,0,VALID,21.0291,VALID,14,VALID,0,
2013-05-03, 00:54:04,VALID,915.529,VALID,0,VALID,96.7869,VALID,0,VALID,21.0876,VALID,14,VALID,0,
2013-05-03, 00:55:04,VALID,915.495,VALID,0,VALID,96.7793,VALID,0,VALID,21.0681,VALID,9,VALID,0,
2013-05-03, 00:56:04,VALID,915.506,VALID,0,VALID,96.7716,VALID,0.107441,VALID,21.0876,VALID,13,VALID,0,
2013-05-03, 00:57:04,VALID,915.486,VALID,0,VALID,96.7869,VALID,0,VALID,21.047,VALID,333,VALID,0,
2013-05-03, 00:58:04,VALID,915.433,VALID,0,VALID,96.7716,VALID,0,VALID,21.0681,VALID,17,VALID,0,
2013-05-03, 00:59:04,VALID,915.415,VALID,0,VALID,96.7716,VALID,0,VALID,21.0096,VALID,21,VALID,0,
2013-05-03, 01:00:04,VALID,915.407,VALID,0,VALID,96.7488,VALID,0,VALID,21.0291,VALID,21,VALID,0,
2013-05-03, 01:01:04,VALID,915.388,VALID,0,VALID,96.7716,VALID,0,VALID,21.0681,VALID,1,VALID,0,
2013-05-03, 01:02:04,VALID,915.364,VALID,0,VALID,96.764,VALID,0,VALID,21.0681,VALID,35,VALID,0,
2013-05-03, 01:03:04,VALID,915.413,VALID,0,VALID,96.764,VALID,0.107441,VALID,21.0681,VALID,34,VALID,0,
2013-05-03, 01:04:04,VALID,915.372,VALID,0,VALID,96.764,VALID,0,VALID,21.0486,VALID,34,VALID,0,
2013-05-03, 01:05:04,VALID,915.336,VALID,0,VALID,96.7564,VALID,0,VALID,21.0876,VALID,34,VALID,0,
2013-05-03, 01:06:04,VALID,915.357,VALID,0,VALID,96.764,VALID,0,VALID,21.0876,VALID,34,VALID,0,
2013-05-03, 01:07:04,VALID,915.317,VALID,0,VALID,96.7716,VALID,0,VALID,21.0486,VALID,263,VALID,0,
2013-05-03, 01:08:04,VALID,915.299,VALID,0,VALID,96.7488,VALID,0,VALID,20.9901,VALID,318,VALID,0,
2013-05-03, 01:09:04,VALID,915.356,VALID,0,VALID,96.7183,VALID,0,VALID,21.0096,VALID,1,VALID,0,
2013-05-03, 01:10:04,VALID,915.333,VALID,0,VALID,96.7259,VALID,0,VALID,20.9901,VALID,15,VALID,0,
2013-05-03, 01:11:04,VALID,915.325,VALID,0,VALID,96.7259,VALID,0,VALID,20.9901,VALID,22,VALID,0,
2013-05-03, 01:12:04,VALID,915.323,VALID,0,VALID,96.703,VALID,0,VALID,20.9706,VALID,20,VALID,0,
2013-05-03, 01:13:04,VALID,915.305,VALID,0,VALID,96.7107,VALID,0.107441,VALID,20.9706,VALID,11,VALID,0,
2013-05-03, 01:14:04,VALID,915.298,VALID,0,VALID,96.6725,VALID,0,VALID,20.912,VALID,5,VALID,0,
2013-05-03, 01:15:04,VALID,915.316,VALID,0,VALID,96.6802,VALID,0,VALID,20.9316,VALID,330,VALID,0,
2013-05-03, 01:16:04,VALID,915.31,VALID,0,VALID,96.6802,VALID,0,VALID,20.9105,VALID,17,VALID,0,
2013-05-03, 01:17:04,VALID,915.337,VALID,0,VALID,96.6725,VALID,0.107441,VALID,20.9511,VALID,17,VALID,0,
2013-05-03, 01:18:04,VALID,915.308,VALID,0,VALID,96.6497,VALID,0,VALID,20.93,VALID,12,VALID,0,
2013-05-03, 01:19:04,VALID,915.289,VALID,0,VALID,96.6497,VALID,0,VALID,20.8925,VALID,12,VALID,0,
2013-05-03, 01:20:04,VALID,915.28,VALID,0,VALID,96.5963,VALID,0,VALID,20.8535,VALID,324,VALID,0,
2013-05-03, 01:21:04,VALID,915.285,VALID,0,VALID,96.5658,VALID,0,VALID,20.8129,VALID,324,VALID,0,
2013-05-03, 01:22:04,VALID,915.252,VALID,0,VALID,96.5429,VALID,0,VALID,20.8535,VALID,38,VALID,0,
2013-05-03, 01:23:04,VALID,915.243,VALID,0,VALID,96.5506,VALID,0,VALID,20.8519,VALID,24,VALID,0,
2013-05-03, 01:24:04,VALID,915.276,VALID,0,VALID,96.5734,VALID,0,VALID,20.873,VALID,15,VALID,0,
2013-05-03, 01:25:04,VALID,915.223,VALID,0,VALID,96.5506,VALID,0,VALID,20.8324,VALID,21,VALID,0,
2013-05-03, 01:26:04,VALID,915.216,VALID,0,VALID,96.5277,VALID,0,VALID,20.8535,VALID,350,VALID,0,
2013-05-03, 01:27:04,VALID,915.213,VALID,0,VALID,96.4819,VALID,0,VALID,20.834,VALID,354,VALID,0,
2013-05-03, 01:28:04,VALID,915.246,VALID,0,VALID,96.4743,VALID,0,VALID,20.834,VALID,24,VALID,0,
2013-05-03, 01:29:04,VALID,915.224,VALID,0,VALID,96.5048,VALID,0,VALID,20.8324,VALID,3,VALID,0,
2013-05-03, 01:30:04,VALID,915.215,VALID,0,VALID,96.4972,VALID,0,VALID,20.8129,VALID,354,VALID,0,
2013-05-03, 01:31:04,VALID,915.258,VALID,0,VALID,96.4896,VALID,0.107441,VALID,20.8535,VALID,358,VALID,0,
2013-05-03, 01:32:04,VALID,915.274,VALID,0,VALID,96.5201,VALID,0,VALID,20.8324,VALID,347,VALID,0,
2013-05-03, 01:33:04,VALID,915.277,VALID,0,VALID,96.4896,VALID,0,VALID,20.873,VALID,347,VALID,0,
2013-05-03, 01:34:04,VALID,915.294,VALID,0,VALID,96.5353,VALID,0,VALID,20.8535,VALID,294,VALID,0,
2013-05-03, 01:35:04,VALID,915.278,VALID,0,VALID,96.4667,VALID,0,VALID,20.8129,VALID,304,VALID,0,
2013-05-03, 01:36:04,VALID,915.275,VALID,0,VALID,96.4972,VALID,0,VALID,20.8324,VALID,347,VALID,0,
2013-05-03, 01:37:04,VALID,915.234,VALID,0,VALID,96.4133,VALID,0.107441,VALID,20.8145,VALID,14,VALID,0,
2013-05-03, 01:38:04,VALID,915.2,VALID,0,VALID,96.3142,VALID,0,VALID,20.7755,VALID,12,VALID,0,
2013-05-03, 01:39:04,VALID,915.197,VALID,0,VALID,96.3142,VALID,0,VALID,20.8145,VALID,359,VALID,0,
2013-05-03, 01:40:04,VALID,915.179,VALID,0,VALID,96.3142,VALID,0,VALID,20.8145,VALID,359,VALID,0,
2013-05-03, 01:41:04,VALID,915.191,VALID,0,VALID,96.3219,VALID,0,VALID,20.8129,VALID,359,VALID,0,
2013-05-03, 01:42:04,VALID,915.137,VALID,0,VALID,96.3066,VALID,0,VALID,20.834,VALID,359,VALID,0,
2013-05-03, 01:43:04,VALID,915.164,VALID,0,VALID,96.2837,VALID,0,VALID,20.834,VALID,360,VALID,0,
2013-05-03, 01:44:04,VALID,915.143,VALID,0,VALID,96.2685,VALID,0,VALID,20.8145,VALID,6,VALID,0,
2013-05-03, 01:45:04,VALID,915.162,VALID,0,VALID,96.238,VALID,0.107441,VALID,20.834,VALID,29,VALID,0,
2013-05-03, 01:46:04,VALID,915.152,VALID,0,VALID,96.2151,VALID,0,VALID,20.8535,VALID,29,VALID,0,
2013-05-03, 01:47:04,VALID,915.156,VALID,0,VALID,96.1846,VALID,0,VALID,20.8324,VALID,29,VALID,0,
2013-05-03, 01:48:04,VALID,915.16,VALID,0,VALID,96.1236,VALID,0,VALID,20.8535,VALID,29,VALID,0,
2013-05-03, 01:49:04,VALID,915.137,VALID,0,VALID,96.0703,VALID,0,VALID,20.8535,VALID,29,VALID,0,
2013-05-03, 01:50:04,VALID,915.171,VALID,0,VALID,96.0703,VALID,0,VALID,20.8714,VALID,29,VALID,0,
2013-05-03, 01:51:04,VALID,915.144,VALID,0,VALID,96.0627,VALID,0,VALID,20.912,VALID,29,VALID,0,
2013-05-03, 01:52:04,VALID,915.136,VALID,0,VALID,96.0169,VALID,0,VALID,20.8925,VALID,29,VALID,0,
2013-05-03, 01:53:04,VALID,915.117,VALID,0,VALID,95.9559,VALID,0,VALID,20.891,VALID,29,VALID,0,
2013-05-03, 01:54:04,VALID,915.117,VALID,0,VALID,95.895,VALID,0,VALID,20.8925,VALID,22,VALID,0,
2013-05-03, 01:55:04,VALID,915.119,VALID,0,VALID,95.7806,VALID,0,VALID,20.873,VALID,15,VALID,0,
2013-05-03, 01:56:04,VALID,915.124,VALID,0,VALID,95.8035,VALID,0,VALID,20.8714,VALID,15,VALID,0,
2013-05-03, 01:57:04,VALID,915.122,VALID,0,VALID,95.7806,VALID,0,VALID,20.8925,VALID,15,VALID,0,
2013-05-03, 01:58:04,VALID,915.131,VALID,0,VALID,95.7501,VALID,0,VALID,20.8519,VALID,16,VALID,0,
2013-05-03, 01:59:04,VALID,915.143,VALID,0,VALID,95.7272,VALID,0,VALID,20.873,VALID,20,VALID,0,
2013-05-03, 02:00:04,VALID,915.115,VALID,0,VALID,95.6205,VALID,0,VALID,20.8129,VALID,23,VALID,0,
2013-05-03, 02:01:04,VALID,915.092,VALID,0,VALID,95.5671,VALID,0.107441,VALID,20.7934,VALID,31,VALID,0,
2013-05-03, 02:02:04,VALID,915.105,VALID,0,VALID,95.6053,VALID,0,VALID,20.795,VALID,31,VALID,0,
2013-05-03, 02:03:04,VALID,915.072,VALID,0,VALID,95.5976,VALID,0,VALID,20.7349,VALID,60,VALID,0,
2013-05-03, 02:04:04,VALID,915.062,VALID,0,VALID,95.6205,VALID,0.107441,VALID,20.7349,VALID,60,VALID,0,
2013-05-03, 02:05:04,VALID,915.031,VALID,0,VALID,95.6434,VALID,0,VALID,20.7365,VALID,60,VALID,0,
2013-05-03, 02:06:04,VALID,915.01,VALID,0,VALID,95.7044,VALID,0,VALID,20.6959,VALID,60,VALID,0,
2013-05-03, 02:07:04,VALID,915.054,VALID,0,VALID,95.7654,VALID,0,VALID,20.717,VALID,60,VALID,0,
2013-05-03, 02:08:04,VALID,915.028,VALID,0,VALID,95.8111,VALID,0,VALID,20.717,VALID,60,VALID,0,
2013-05-03, 02:09:04,VALID,915.015,VALID,0,VALID,95.8187,VALID,0,VALID,20.6975,VALID,60,VALID,0,
2013-05-03, 02:10:04,VALID,914.99,VALID,0,VALID,95.8492,VALID,0,VALID,20.6569,VALID,61,VALID,0,
2013-05-03, 02:11:04,VALID,914.998,VALID,0,VALID,95.895,VALID,0,VALID,20.6764,VALID,61,VALID,0,
2013-05-03, 02:12:04,VALID,914.979,VALID,0,VALID,95.9483,VALID,0.107441,VALID,20.6569,VALID,105,VALID,0,
2013-05-03, 02:13:04,VALID,914.987,VALID,0,VALID,95.9636,VALID,0.107441,VALID,20.678,VALID,103,VALID,0,
2013-05-03, 02:14:04,VALID,914.99,VALID,0,VALID,95.9941,VALID,0,VALID,20.678,VALID,122,VALID,0,
2013-05-03, 02:15:04,VALID,914.987,VALID,0,VALID,96.0398,VALID,0,VALID,20.678,VALID,99,VALID,0,
2013-05-03, 02:16:04,VALID,914.986,VALID,0,VALID,96.0779,VALID,0,VALID,20.6569,VALID,115,VALID,0,
2013-05-03, 02:17:04,VALID,914.966,VALID,0,VALID,96.1008,VALID,0.107441,VALID,20.6569,VALID,130,VALID,0,
2013-05-03, 02:18:04,VALID,914.957,VALID,0,VALID,96.116,VALID,0,VALID,20.678,VALID,116,VALID,0,
2013-05-03, 02:19:04,VALID,914.937,VALID,0,VALID,96.1389,VALID,0,VALID,20.6585,VALID,96,VALID,0,
2013-05-03, 02:20:04,VALID,914.913,VALID,0,VALID,96.177,VALID,0,VALID,20.6585,VALID,125,VALID,0,
2013-05-03, 02:21:04,VALID,914.915,VALID,0,VALID,96.1923,VALID,0,VALID,20.639,VALID,120,VALID,0,
2013-05-03, 02:22:04,VALID,914.906,VALID,0,VALID,96.238,VALID,0,VALID,20.6585,VALID,105,VALID,0,
2013-05-03, 02:23:04,VALID,914.869,VALID,0,VALID,96.2456,VALID,0,VALID,20.6179,VALID,108,VALID,0,
2013-05-03, 02:24:04,VALID,914.853,VALID,0,VALID,96.3066,VALID,0,VALID,20.6374,VALID,108,VALID,0,
2013-05-03, 02:25:05,VALID,914.825,VALID,0,VALID,96.3295,VALID,0.107441,VALID,20.6179,VALID,108,VALID,0,
2013-05-03, 02:26:05,VALID,914.818,VALID,0,VALID,96.3447,VALID,0.107441,VALID,20.6179,VALID,113,VALID,0,
2013-05-03, 02:27:05,VALID,914.767,VALID,0,VALID,96.3752,VALID,0,VALID,20.6194,VALID,113,VALID,0,
2013-05-03, 02:28:05,VALID,914.766,VALID,0,VALID,96.4133,VALID,0,VALID,20.6194,VALID,113,VALID,0,
2013-05-03, 02:29:05,VALID,914.773,VALID,0,VALID,96.4133,VALID,0,VALID,20.6179,VALID,113,VALID,0,
2013-05-03, 02:30:05,VALID,914.776,VALID,0,VALID,96.4362,VALID,0,VALID,20.639,VALID,113,VALID,0,
2013-05-03, 02:31:05,VALID,914.776,VALID,0,VALID,96.4591,VALID,0,VALID,20.6179,VALID,113,VALID,0,
2013-05-03, 02:32:05,VALID,914.781,VALID,0,VALID,96.4515,VALID,0,VALID,20.6194,VALID,113,VALID,0,
2013-05-03, 02:33:05,VALID,914.781,VALID,0,VALID,96.4667,VALID,0,VALID,20.639,VALID,113,VALID,0,
2013-05-03, 02:34:05,VALID,914.793,VALID,0,VALID,96.4972,VALID,0,VALID,20.678,VALID,113,VALID,0,
2013-05-03, 02:35:05,VALID,914.831,VALID,0,VALID,96.5048,VALID,0,VALID,20.717,VALID,113,VALID,0,
2013-05-03, 02:36:05,VALID,914.813,VALID,0,VALID,96.5048,VALID,0,VALID,20.6975,VALID,113,VALID,0,
2013-05-03, 02:37:05,VALID,914.816,VALID,0,VALID,96.4896,VALID,0,VALID,20.6975,VALID,113,VALID,0,
2013-05-03, 02:38:05,VALID,914.838,VALID,0,VALID,96.4819,VALID,0,VALID,20.6975,VALID,113,VALID,0,
2013-05-03, 02:39:05,VALID,914.85,VALID,0,VALID,96.4819,VALID,0,VALID,20.717,VALID,113,VALID,0,
2013-05-03, 02:40:05,VALID,914.826,VALID,0,VALID,96.4819,VALID,0,VALID,20.717,VALID,113,VALID,0,
2013-05-03, 02:41:05,VALID,914.871,VALID,0,VALID,96.4743,VALID,0,VALID,20.756,VALID,113,VALID,0,
2013-05-03, 02:42:05,VALID,914.861,VALID,0,VALID,96.4743,VALID,0,VALID,20.7381,VALID,113,VALID,0,
2013-05-03, 02:43:05,VALID,914.856,VALID,0,VALID,96.4515,VALID,0,VALID,20.717,VALID,113,VALID,0,
2013-05-03, 02:44:05,VALID,914.826,VALID,0,VALID,96.4515,VALID,0,VALID,20.717,VALID,113,VALID,0,
2013-05-03, 02:45:05,VALID,914.834,VALID,0,VALID,96.4438,VALID,0,VALID,20.6975,VALID,113,VALID,0,
2013-05-03, 02:46:05,VALID,914.842,VALID,0,VALID,96.4286,VALID,0,VALID,20.6975,VALID,113,VALID,0,
2013-05-03, 02:47:05,VALID,914.825,VALID,0,VALID,96.4362,VALID,0,VALID,20.678,VALID,113,VALID,0,
2013-05-03, 02:48:05,VALID,914.835,VALID,0,VALID,96.4362,VALID,0,VALID,20.678,VALID,113,VALID,0,
2013-05-03, 02:49:05,VALID,914.83,VALID,0,VALID,96.4362,VALID,0,VALID,20.6585,VALID,113,VALID,0,
2013-05-03, 02:50:05,VALID,914.795,VALID,0,VALID,96.4133,VALID,0,VALID,20.6585,VALID,126,VALID,0,
2013-05-03, 02:51:05,VALID,914.789,VALID,0,VALID,96.421,VALID,0,VALID,20.6585,VALID,126,VALID,0,
2013-05-03, 02:52:05,VALID,914.779,VALID,0,VALID,96.4362,VALID,0,VALID,20.678,VALID,126,VALID,0,
2013-05-03, 02:53:05,VALID,914.758,VALID,0,VALID,96.421,VALID,0,VALID,20.6975,VALID,126,VALID,0,
2013-05-03, 02:54:05,VALID,914.753,VALID,0,VALID,96.4362,VALID,0,VALID,20.6975,VALID,126,VALID,0,
2013-05-03, 02:55:05,VALID,914.744,VALID,0,VALID,96.4515,VALID,0,VALID,20.7365,VALID,126,VALID,0,
2013-05-03, 02:56:05,VALID,914.731,VALID,0,VALID,96.4515,VALID,0.107441,VALID,20.717,VALID,126,VALID,0,
2013-05-03, 02:57:05,VALID,914.686,VALID,0,VALID,96.421,VALID,0,VALID,20.7365,VALID,126,VALID,0,
2013-05-03, 02:58:05,VALID,914.698,VALID,0,VALID,96.4133,VALID,0,VALID,20.7365,VALID,126,VALID,0,
2013-05-03, 02:59:05,VALID,914.673,VALID,0,VALID,96.3905,VALID,0,VALID,20.7154,VALID,126,VALID,0,
2013-05-03, 03:00:05,VALID,914.678,VALID,0,VALID,96.3829,VALID,0,VALID,20.6975,VALID,126,VALID,0,
2013-05-03, 03:01:05,VALID,914.683,VALID,0,VALID,96.3371,VALID,0,VALID,20.6975,VALID,126,VALID,0,
2013-05-03, 03:02:05,VALID,914.679,VALID,0,VALID,96.3371,VALID,0,VALID,20.678,VALID,126,VALID,0,
2013-05-03, 03:03:05,VALID,914.682,VALID,0,VALID,96.3219,VALID,0,VALID,20.6585,VALID,126,VALID,0,
2013-05-03, 03:04:05,VALID,914.672,VALID,0,VALID,96.3142,VALID,0,VALID,20.6585,VALID,126,VALID,0,
2013-05-03, 03:05:05,VALID,914.692,VALID,0,VALID,96.3142,VALID,0,VALID,20.639,VALID,126,VALID,0,
2013-05-03, 03:06:05,VALID,914.687,VALID,0,VALID,96.3066,VALID,0,VALID,20.639,VALID,126,VALID,0,
2013-05-03, 03:07:05,VALID,914.629,VALID,0,VALID,96.3219,VALID,0,VALID,20.639,VALID,126,VALID,0,
2013-05-03, 03:08:05,VALID,914.644,VALID,0,VALID,96.3142,VALID,0,VALID,20.639,VALID,125,VALID,0,
2013-05-03, 03:09:05,VALID,914.646,VALID,0,VALID,96.3524,VALID,0,VALID,20.639,VALID,125,VALID,0,
2013-05-03, 03:10:05,VALID,914.633,VALID,0,VALID,96.3676,VALID,0,VALID,20.6194,VALID,122,VALID,0,
2013-05-03, 03:11:05,VALID,914.636,VALID,0,VALID,96.3905,VALID,0,VALID,20.6194,VALID,125,VALID,0,
2013-05-03, 03:12:05,VALID,914.641,VALID,0,VALID,96.3829,VALID,0,VALID,20.6194,VALID,117,VALID,0,
2013-05-03, 03:13:05,VALID,914.621,VALID,0,VALID,96.3905,VALID,0,VALID,20.5999,VALID,130,VALID,0,
2013-05-03, 03:14:05,VALID,914.581,VALID,0,VALID,96.421,VALID,0,VALID,20.6194,VALID,129,VALID,0,
2013-05-03, 03:15:05,VALID,914.596,VALID,0,VALID,96.4591,VALID,0,VALID,20.6194,VALID,136,VALID,0,
2013-05-03, 03:16:05,VALID,914.586,VALID,0,VALID,96.4819,VALID,0,VALID,20.6194,VALID,136,VALID,0,
2013-05-03, 03:17:05,VALID,914.566,VALID,0,VALID,96.4896,VALID,0,VALID,20.639,VALID,135,VALID,0,
2013-05-03, 03:18:05,VALID,914.57,VALID,0,VALID,96.5124,VALID,0,VALID,20.639,VALID,136,VALID,0,
2013-05-03, 03:19:05,VALID,914.59,VALID,0,VALID,96.5201,VALID,0,VALID,20.5999,VALID,132,VALID,0,
2013-05-03, 03:20:05,VALID,914.565,VALID,0,VALID,96.5201,VALID,0,VALID,20.5999,VALID,152,VALID,0,
2013-05-03, 03:21:05,VALID,914.578,VALID,0,VALID,96.5124,VALID,0,VALID,20.5594,VALID,135,VALID,0,
2013-05-03, 03:22:05,VALID,914.56,VALID,0,VALID,96.5429,VALID,0,VALID,20.5804,VALID,130,VALID,0,
2013-05-03, 03:23:05,VALID,914.557,VALID,0.2,VALID,96.5582,VALID,0,VALID,20.5609,VALID,126,VALID,0,
2013-05-03, 03:24:05,VALID,914.537,VALID,0,VALID,96.5658,VALID,0,VALID,20.5804,VALID,136,VALID,0,
2013-05-03, 03:25:05,VALID,914.551,VALID,0,VALID,96.5887,VALID,0,VALID,20.5609,VALID,135,VALID,0,
2013-05-03, 03:26:05,VALID,914.522,VALID,0,VALID,96.6039,VALID,0,VALID,20.5414,VALID,134,VALID,0,
2013-05-03, 03:27:05,VALID,914.492,VALID,0,VALID,96.6115,VALID,0,VALID,20.5414,VALID,128,VALID,0,
2013-05-03, 03:28:05,VALID,914.493,VALID,0,VALID,96.6344,VALID,0,VALID,20.5414,VALID,134,VALID,0,
2013-05-03, 03:29:05,VALID,914.485,VALID,0.2,VALID,96.6497,VALID,0,VALID,20.5414,VALID,131,VALID,0,
2013-05-03, 03:30:05,VALID,914.484,VALID,0,VALID,96.6497,VALID,0,VALID,20.5204,VALID,131,VALID,0,
2013-05-03, 03:31:05,VALID,914.486,VALID,0,VALID,96.6725,VALID,0,VALID,20.5414,VALID,130,VALID,0,
2013-05-03, 03:32:05,VALID,914.471,VALID,0,VALID,96.6954,VALID,0,VALID,20.5609,VALID,145,VALID,0,
2013-05-03, 03:33:05,VALID,914.468,VALID,0.2,VALID,96.6802,VALID,0,VALID,20.5609,VALID,148,VALID,0,
2013-05-03, 03:34:05,VALID,914.492,VALID,0,VALID,96.703,VALID,0,VALID,20.5414,VALID,165,VALID,0,
2013-05-03, 03:35:05,VALID,914.454,VALID,0,VALID,96.6954,VALID,0,VALID,20.5414,VALID,165,VALID,0,
2013-05-03, 03:36:05,VALID,914.446,VALID,0,VALID,96.7183,VALID,0,VALID,20.5219,VALID,165,VALID,0,
2013-05-03, 03:37:05,VALID,914.457,VALID,0,VALID,96.7335,VALID,0,VALID,20.5219,VALID,156,VALID,0,
2013-05-03, 03:38:05,VALID,914.446,VALID,0.2,VALID,96.7107,VALID,0,VALID,20.5235,VALID,144,VALID,0,
2013-05-03, 03:39:05,VALID,914.404,VALID,0,VALID,96.7259,VALID,0,VALID,20.5024,VALID,135,VALID,0,
2013-05-03, 03:40:05,VALID,914.402,VALID,0,VALID,96.7107,VALID,0,VALID,20.5024,VALID,136,VALID,0,
2013-05-03, 03:41:05,VALID,914.399,VALID,0,VALID,96.7107,VALID,0,VALID,20.4829,VALID,125,VALID,0,
2013-05-03, 03:42:05,VALID,914.398,VALID,0,VALID,96.7335,VALID,0,VALID,20.4634,VALID,131,VALID,0,
2013-05-03, 03:43:05,VALID,914.414,VALID,0.2,VALID,96.7259,VALID,0,VALID,20.4634,VALID,118,VALID,0,
2013-05-03, 03:44:05,VALID,914.4,VALID,0,VALID,96.7335,VALID,0,VALID,20.4634,VALID,123,VALID,0,
2013-05-03, 03:45:05,VALID,914.373,VALID,0,VALID,96.7259,VALID,0,VALID,20.4439,VALID,132,VALID,0,
2013-05-03, 03:46:05,VALID,914.405,VALID,0,VALID,96.7259,VALID,0,VALID,20.4845,VALID,95,VALID,0,
2013-05-03, 03:47:05,VALID,914.385,VALID,0,VALID,96.7411,VALID,0,VALID,20.4439,VALID,107,VALID,0,
2013-05-03, 03:48:05,VALID,914.381,VALID,0,VALID,96.7411,VALID,0,VALID,20.4454,VALID,108,VALID,0,
2013-05-03, 03:49:05,VALID,914.398,VALID,0,VALID,96.7411,VALID,0,VALID,20.4244,VALID,108,VALID,0,
2013-05-03, 03:50:05,VALID,914.414,VALID,0,VALID,96.7411,VALID,0,VALID,20.4244,VALID,114,VALID,0,
2013-05-03, 03:51:05,VALID,914.416,VALID,0,VALID,96.7335,VALID,0,VALID,20.4244,VALID,114,VALID,0,
2013-05-03, 03:52:05,VALID,914.39,VALID,0,VALID,96.7335,VALID,0,VALID,20.4244,VALID,114,VALID,0,
2013-05-03, 03:53:05,VALID,914.404,VALID,0,VALID,96.7259,VALID,0,VALID,20.4049,VALID,143,VALID,0,
2013-05-03, 03:54:05,VALID,914.372,VALID,0.2,VALID,96.7183,VALID,0,VALID,20.4049,VALID,143,VALID,0,
2013-05-03, 03:55:05,VALID,914.391,VALID,0,VALID,96.7259,VALID,0,VALID,20.4049,VALID,143,VALID,0,
2013-05-03, 03:56:05,VALID,914.377,VALID,0,VALID,96.6954,VALID,0,VALID,20.3854,VALID,143,VALID,0,
2013-05-03, 03:57:05,VALID,914.361,VALID,0,VALID,96.6954,VALID,0,VALID,20.3659,VALID,143,VALID,0,
2013-05-03, 03:58:05,VALID,914.39,VALID,0,VALID,96.6802,VALID,0,VALID,20.3659,VALID,118,VALID,0,
2013-05-03, 03:59:05,VALID,914.398,VALID,0,VALID,96.6802,VALID,0,VALID,20.3269,VALID,124,VALID,0,